Ketchikan, AK

10:33 PM AKDT on September 20, 2018 (GMT -0800)
Ketchikan International

Weather History for PAKT - August, 2018

Change the Weather History Date:

Saturday, August 25, 2018

  Actual Average Record
Temperature  
Mean Temperature 60 °F -  
Max Temperature 64 °F 64 °F 80 °F (1954)
Min Temperature 55 °F 50 °F 41 °F (1964)
Degree Days  
Heating Degree Days 6    
Growing Degree Days 10 (Base 50)    
Moisture  
Dew Point 53 °F    
Average Humidity 84    
Maximum Humidity 97    
Minimum Humidity 59    
Precipitation  
Precipitation 0.08 in - - ()
Sea Level Pressure  
Sea Level Pressure 30.01 in    
Wind  
Wind Speed 4 mph (NNW)    
Max Wind Speed 10 mph    
Max Gust Speed 18 mph    
Visibility 9 miles    
Events Rain    
Averages and records for this station are not official NWS values.
T = Trace of Precipitation, MM = Missing Value Source: NWS Daily Summary

Daily Weather History Graph

Daily Weather History Graph

Search for Another Location

Airport or City:

Astronomy

Aug. 25, 2018 Rise Set
Actual Time 5:39 AM AKDT 7:56 PM AKDT
Civil Twilight 4:59 AM AKDT 8:36 PM AKDT
Nautical Twilight 4:08 AM AKDT 9:27 PM AKDT
Astronomical Twilight 3:06 AM AKDT 10:28 PM AKDT
Moon 8:01 PM AKDT (8/25) 4:32 AM AKDT (8/25)
Length of Visible Light 15h 37m
Length of Day
14h 17m
Full, 100% of the Moon is Illuminated
Aug 25
Full
Aug 26
Full
Sep 2
Last Quarter
Sep 9
New
Sep 16
First Quarter

Hourly Weather History & Observations

Time (AKDT) Temp. Dew Point Humidity Pressure Visibility Wind Dir Wind Speed Gust Speed Precip Events Conditions
12:53 AM 55.9 °F 54.0 °F 93% 29.96 in 6.0 mi SE 3.5 mph - N/A   Overcast
1:17 AM 55.9 °F 54.0 °F 93% 29.96 in 3.0 mi SSE 3.5 mph - 0.00 in Rain Light Rain
1:25 AM 55.9 °F 55.0 °F 97% 29.96 in 6.0 mi Calm Calm - 0.00 in   Overcast
1:53 AM 55.9 °F 55.0 °F 97% 29.97 in 10.0 mi Calm Calm - 0.00 in   Overcast
2:45 AM 55.9 °F 55.0 °F 97% 29.97 in 4.0 mi Calm Calm - 0.01 in Rain Light Rain
2:53 AM 55.9 °F 55.0 °F 97% 29.97 in 6.0 mi Calm Calm - 0.01 in Rain Light Rain
3:53 AM 55.9 °F 54.0 °F 93% 29.97 in 10.0 mi NNW 8.1 mph - 0.00 in   Overcast
4:16 AM 55.9 °F 54.0 °F 93% 29.97 in 10.0 mi WNW 4.6 mph - N/A   Mostly Cloudy
4:30 AM 55.9 °F 54.0 °F 93% 29.97 in 10.0 mi WNW 3.5 mph - N/A   Mostly Cloudy
4:53 AM 55.9 °F 54.0 °F 93% 29.98 in 10.0 mi NW 5.8 mph - N/A   Overcast
5:07 AM 57.0 °F 55.0 °F 93% 29.98 in 10.0 mi WNW 4.6 mph - N/A   Overcast
5:16 AM 57.0 °F 54.0 °F 89% 29.98 in 10.0 mi WNW 6.9 mph - N/A   Overcast
5:53 AM 57.0 °F 54.0 °F 89% 29.99 in 10.0 mi NNW 6.9 mph - N/A   Overcast
6:53 AM 57.2 °F 53.6 °F 88% 29.99 in 10.0 mi North 6.9 mph - N/A   Overcast
7:53 AM 57.2 °F 53.6 °F 88% 30.01 in 10.0 mi NNW 10.4 mph - N/A   Mostly Cloudy
8:53 AM 59.0 °F 53.6 °F 82% 30.02 in 10.0 mi NNW 5.8 mph - N/A   Overcast
9:53 AM 60.8 °F 53.6 °F 77% 30.03 in 10.0 mi North 6.9 mph - N/A   Overcast
10:53 AM 60.8 °F 53.6 °F 77% 30.04 in 10.0 mi NNW 8.1 mph - N/A   Overcast
11:53 AM 62.6 °F 51.8 °F 68% 30.04 in 10.0 mi North 8.1 mph - N/A   Mostly Cloudy
12:53 PM 64.4 °F 51.8 °F 64% 30.04 in 10.0 mi North 8.1 mph - N/A   Overcast
1:53 PM 64.4 °F 51.8 °F 64% 30.06 in 10.0 mi NNW 10.4 mph - N/A   Overcast
2:53 PM 64.4 °F 50.0 °F 59% 30.06 in 10.0 mi NW 10.4 mph 18.4 mph N/A   Overcast
3:53 PM 62.6 °F 50.0 °F 63% 30.06 in 10.0 mi Variable 6.9 mph - N/A   Mostly Cloudy
4:53 PM 62.1 °F 52.0 °F 70% 30.05 in 10.0 mi NNW 8.1 mph - N/A   Mostly Cloudy
5:53 PM 61.0 °F 52.0 °F 72% 30.05 in 10.0 mi NNW 8.1 mph - 0.00 in   Overcast
6:53 PM 59.0 °F 51.1 °F 75% 30.05 in 10.0 mi North 9.2 mph - 0.00 in   Overcast
7:53 PM 57.0 °F 53.1 °F 87% 30.05 in 8.0 mi NW 4.6 mph - 0.01 in Rain Light Rain
8:53 PM 55.9 °F 53.1 °F 90% 30.04 in 7.0 mi WNW 3.5 mph - 0.01 in Rain Light Rain
9:53 PM 55.9 °F 53.1 °F 90% 30.03 in 10.0 mi Calm Calm - 0.01 in Rain Light Rain
10:53 PM 55.0 °F 53.1 °F 93% 30.03 in 7.0 mi Calm Calm - 0.03 in Rain Light Rain
11:53 PM 55.0 °F 53.1 °F 93% 30.02 in 10.0 mi Calm Calm - 0.01 in   Overcast